Weather History for Toronto, ON

Change the Weather History Date:

Sunday, August 18, 2013

  Actual Average Record
Temperature  
Mean Temperature 66 °F -  
Max Temperature 73 °F 71 °F 80 °F (2002)
Min Temperature 60 °F 58 °F 53 °F (2007)
Cooling Degree Days 2    
Growing Degree Days 16 (Base 50)    
Moisture  
Dew Point 62 °F    
Average Humidity 80    
Maximum Humidity 88    
Minimum Humidity 68    
Precipitation  
Precipitation 0.00 in 0.10 in - ()
Sea Level Pressure  
Sea Level Pressure 30.19 in    
Wind  
Wind Speed 6 mph ()    
Max Wind Speed 8 mph    
Max Gust Speed -    
Visibility 9.1 miles    
Events      
Averages and records for this station are not official NWS values.
T = Trace of Precipitation, MM = Missing Value Source: Averaged Metar Reports

Daily Weather History Graph

Daily Weather History Graph

Search for Another Location

Airport:

Trip Planner

Search our weather history database for the weather conditions in past years. The results will help you decide how hot, cold, wet, or windy it might be!

Date:

Astronomy

Aug. 18, 2013 Rise Set
Actual Time 6:25 AM EDT 8:16 PM EDT
Civil Twilight 5:55 AM EDT 8:46 PM EDT
Nautical Twilight 5:17 AM EDT 9:24 PM EDT
Astronomical Twilight 4:36 AM EDT 10:04 PM EDT
Moon 6:22 PM EDT (8/18) 3:30 AM EDT (8/18)
Length of Visible Light 14h 51m
Length of Day
13h 50m
Waxing Gibbous, 92% of the Moon is Illuminated
Aug 18
Waxing Gibbous
Aug 20
Full
Aug 28
Last Quarter
Sep 5
New
Sep 12
First Quarter

Hourly Weather History & Observations

Time (EDT) Temp. Dew Point Humidity Pressure Visibility Wind Dir Wind Speed Gust Speed Precip Events Conditions
12:00 AM 66.2 °F 60.8 °F 83% 30.24 in 9.0 mi East 8.1 mph - N/A   Clear
1:00 AM 66.2 °F 60.8 °F 83% 30.24 in 9.0 mi East 6.9 mph - N/A   Clear
2:00 AM 66 °F 61 °F 78% 30.23 in 10 mi East 8.1 mph - -  
2:00 AM 66.2 °F 60.8 °F 83% 30.22 in 9.0 mi ENE 6.9 mph - N/A   Clear
3:00 AM 66.2 °F 59.0 °F 78% 30.22 in 9.0 mi ENE 6.9 mph - N/A   Clear
4:00 AM 64.4 °F 59.0 °F 83% 30.22 in 9.0 mi ENE 8.1 mph - N/A   Clear
5:00 AM 64.4 °F 59.0 °F 83% 30.22 in 9.0 mi ENE 8.1 mph - N/A   Clear
6:00 AM 62.6 °F 59.0 °F 88% 30.23 in 9.0 mi ENE 6.9 mph - N/A   Clear
7:00 AM 60.8 °F 57.2 °F 88% 30.23 in 9.0 mi Calm Calm - N/A   Clear
8:00 AM 66 °F 60 °F 74% 30.24 in 10 mi ENE 5.8 mph - -  
8:00 AM 66.2 °F 59.0 °F 78% 30.24 in 9.0 mi ENE 5.8 mph - N/A   Clear
9:00 AM 68.0 °F 60.8 °F 78% 30.25 in 9.0 mi East 6.9 mph - N/A   Clear
10:00 AM 68.0 °F 60.8 °F 78% 30.25 in 9.0 mi East 8.1 mph - N/A   Clear
11:00 AM 69.8 °F 60.8 °F 73% 30.24 in 9.0 mi East 6.9 mph - N/A   Clear
12:00 PM 69.8 °F 62.6 °F 78% 30.23 in 9.0 mi ENE 6.9 mph - N/A   Clear
1:00 PM 69.8 °F 62.6 °F 78% 30.21 in 9.0 mi ENE 5.8 mph - N/A   Clear
2:00 PM 72 °F 64 °F 68% 30.19 in 10 mi ENE 5.8 mph - -  
2:00 PM 71.6 °F 64.4 °F 78% 30.19 in 9.0 mi ENE 5.8 mph - N/A   Clear
3:00 PM 71.6 °F 62.6 °F 73% 30.17 in 9.0 mi ENE 6.9 mph - N/A   Clear
4:00 PM 73.4 °F 64.4 °F 73% 30.16 in 9.0 mi ENE 8.1 mph - N/A   Clear
5:00 PM 73.4 °F 62.6 °F 69% 30.14 in 9.0 mi ENE 5.8 mph - N/A   Clear
6:00 PM 73.4 °F 64.4 °F 73% 30.13 in 9.0 mi East 4.6 mph - N/A   Clear
7:00 PM 69.8 °F 64.4 °F 83% 30.12 in 9.0 mi ENE 4.6 mph - N/A   Clear
8:00 PM 68.0 °F 64.4 °F 88% 30.11 in 9.0 mi East 3.5 mph - N/A   Clear
9:00 PM 68.0 °F 64.4 °F 88% 30.11 in 9.0 mi ENE 3.5 mph - N/A   Clear
10:00 PM 68.0 °F 64.4 °F 88% 30.11 in 9.0 mi Calm Calm - N/A   Clear
11:00 PM 68.0 °F 64.4 °F 88% 30.11 in 9.0 mi WNW 2.3 mph - N/A   Clear